[[{"header":{"parameterUnit":"m.s-1","parameterCategory":1,"la1":30.2991,"la2":30.254,"lo1":-89.0895,"lo2":-89.0444,"dy":0.0017,"dx":0.0017,"nx":28,"ny":28,"refTime":"2024-08-30T09:00:00:Z","depth":0,"parameterNumber":2,"parameterNumberName":"U-component_of_WINDS"},"data":[0,0,0,0,0,0,0,0,0,0,0,0,0,0,0,0,0,0,0,0,0,0,0,0,0,0,0,0,0,0,0,0,0,0,0,0,0,0,0,0,0,0,0,0,0,0,0,0,0,0,0,0,0,0,0,0,0,0,-3.0231,-3.0231,0,-3.0267,-3.0268,-3.0268,-3.0199,-3.0197,-3.0194,-3.0192,-3.0228,-3.0231,-3.0234,0,0,0,0,0,0,0,0,0,0,0,0,0,-3.01,-3.0102,-3.0231,-3.0231,-3.0232,-3.0267,-3.0268,-3.0268,-3.0199,-3.0197,-3.0194,-3.0191,-3.0227,-3.023,-3.0234,0,0,0,0,0,0,0,0,0,0,0,0,0,-3.0148,-3.0103,-3.0231,-3.0202,-3.0199,-3.0267,-3.0268,-3.0268,-3.02,-3.0196,-3.0193,-3.019,-3.0225,-3.023,-3.0234,-3.0331,0,0,-3.0248,-3.025,0,0,0,0,0,0,0,0,-3.0146,-3.0153,-3.0205,-3.0204,-3.0201,-3.0225,-3.0234,-3.0289,-3.0201,-3.02,-3.0192,-3.0188,-3.0229,-3.0233,-3.0248,-3.0333,-3.0335,-3.0249,-3.0252,-3.0254,-3.0255,0,0,0,0,0,0,0,-3.0142,-3.0151,-3.0245,-3.0206,-3.0204,-3.0186,-3.0189,-3.0244,-3.0233,-3.0199,-3.0195,-3.02,-3.0228,-3.0243,-3.0248,-3.0335,-3.0249,-3.0253,-3.0256,-3.0257,-3.0501,-3.0504,0,0,0,0,0,0,-3.0143,-3.0149,-3.0244,-3.0246,-3.0165,-3.0191,-3.0195,-3.0221,-3.0232,-3.0231,-3.0203,-3.0197,-3.0237,-3.0243,-3.0249,-3.0362,-3.0254,-3.0258,-3.0261,-3.0497,-3.0502,-3.0506,0,0,0,0,0,0,-3.014,-3.0152,-3.0242,-3.0196,-3.0206,-3.0197,-3.0227,-3.0223,-3.0239,-3.0235,-3.0232,-3.0221,-3.0235,-3.0243,-3.0311,-3.0362,-3.026,-3.0264,-3.0493,-3.0498,-3.0504,-3.059,0,0,0,0,0,0,-3.0137,-3.0152,-3.0189,-3.0198,-3.0209,-3.0305,-3.023,-3.0227,-3.0248,-3.024,-3.0252,-3.025,-3.0233,-3.0305,-3.0316,-3.0367,-3.0268,-3.0488,-3.0495,-3.0502,-3.0582,-3.0597,-3.0611,0,0,0,0,0,-3.0132,-3.0211,-3.0191,-3.0203,-3.0256,-3.0308,-3.0314,-3.0293,-3.0252,-3.0289,-3.0286,-3.025,-3.0356,-3.0312,-3.0324,-3.0377,-3.0485,-3.0493,-3.0501,-3.0576,-3.0594,-3.061,0,0,0,0,0,0,-3.0207,-3.0212,-3.0189,-3.0273,-3.0291,-3.0296,-3.0342,-3.0314,-3.0343,-3.0334,-3.0306,-3.0309,-3.0383,-3.0388,-3.0339,-3.0471,-3.0413,-3.0424,-3.0466,-3.0483,-3.0497,-3.0493,-3.0272,0,0,0,0,0,-3.0234,-3.0277,-3.0278,-3.0352,-3.0362,-3.0351,-3.0373,-3.0355,-3.0372,-3.0379,-3.0381,-3.0398,-3.0435,-3.046,-3.0494,-3.0583,-3.0584,-3.0626,-3.064,-3.0652,-3.0661,-3.0707,-3.0725,-3.0533,-3.0533,-3.0533,0,0,-3.0289,-3.0297,-3.0325,-3.0368,-3.0379,-3.0423,-3.0358,-3.0407,-3.0439,-3.0386,-3.0451,-3.0454,-3.0471,-3.055,-3.0585,-3.0556,-3.0715,-3.0662,-3.0672,-3.0674,-3.0718,-3.0736,-3.0752,-3.0539,-3.0538,-3.0537,0,0,-3.0411,-3.0422,-3.0484,-3.0497,-3.0516,-3.0508,-3.0523,-3.0533,-3.0533,-3.0598,-3.0558,-3.0596,-3.0661,-3.0674,-3.0689,-3.0818,-3.0785,-3.083,-3.0903,-3.0949,-3.0964,-3.0977,-3.1021,-3.1037,-3.084,-3.084,-3.084,0,-3.0476,-3.0541,-3.0519,-3.0572,-3.0591,-3.0547,-3.0609,-3.0622,-3.0651,-3.0665,-3.0632,-3.0712,-3.0721,-3.0802,-3.0833,-3.0848,-3.0863,-3.0827,-3.0964,-3.0977,-3.0989,-3.103,-3.1047,-3.0845,-3.0844,-3.0844,-3.0843,0,-3.062,-3.0666,-3.0714,-3.0743,-3.0769,-3.0826,-3.0812,-3.084,-3.0821,-3.0816,-3.0882,-3.0891,-3.0926,-3.0944,-3.0926,-3.1023,-3.1004,-3.0968,-3.0908,-3.1012,-3.1051,-3.1067,-3.0852,-3.0851,-3.0849,-3.0848,0,0,-3.0788,-3.0805,-3.0823,-3.0835,-3.0853,-3.0888,-3.0943,-3.0977,-3.1001,-3.1023,-3.1067,-3.1124,-3.1091,-3.1108,-3.1091,-3.1132,-3.1231,-3.109,-3.109,-3.1114,-3.1336,-3.1361,-3.138,-3.121,-3.1213,-3.1216,-3.1334,0,-3.0907,-3.1002,-3.0984,-3.1077,-3.1118,-3.1077,-3.1125,-3.1141,-3.1139,-3.1173,-3.117,-3.121,-3.1164,-3.1174,-3.1213,-3.1211,-3.1274,-3.1202,-3.1249,-3.1251,-3.1244,-3.1401,-3.1427,-3.1539,-3.1349,-3.1352,-3.1354,0,-3.1058,-3.1086,-3.1183,-3.1194,-3.1211,-3.1254,-3.1284,-3.1318,-3.1335,-3.133,-3.1351,-3.1326,-3.138,-3.1322,-3.1395,-3.1346,-3.1365,-3.1367,-3.1371,-3.1372,-3.1307,-3.1404,-3.1574,-3.159,-3.1378,-3.1376,-3.1374,0,-3.1168,-3.123,-3.1296,-3.1308,-3.1323,-3.1354,-3.1362,-3.1376,-3.1397,-3.1424,-3.1437,-3.147,-3.1487,-3.1512,-3.1497,-3.1456,-3.1572,-3.1513,-3.1568,-3.1569,-3.1592,-3.159,-3.1765,-3.1609,-3.1609,-3.1608,-3.1608,0,-3.1302,-3.1362,-3.1345,-3.1385,-3.1452,-3.1431,-3.1497,-3.1499,-3.1512,-3.1551,-3.1519,-3.1556,-3.1535,-3.157,-3.1559,-3.162,-3.1629,-3.1626,-3.1621,-3.1627,-3.1627,-3.1637,-3.1628,-3.1613,-3.1612,-3.1611,-3.161,0,-3.1435,-3.1426,-3.1495,-3.1504,-3.1507,-3.1556,-3.1563,-3.16,-3.1596,-3.1646,-3.1656,-3.165,-3.169,-3.1678,-3.1721,-3.1714,-3.1791,-3.1778,-3.1785,-3.1781,-3.1836,-3.183,-3.2021,-3.2044,-3.1876,-3.1877,-3.1879,0,-3.1519,-3.1565,-3.1579,-3.1603,-3.1613,-3.1653,-3.1675,-3.1657,-3.1681,-3.1705,-3.1739,-3.1776,-3.1805,-3.1871,-3.187,-3.1903,-3.1889,-3.1954,-3.1893,-3.1897,-3.1887,-3.1883,-3.1887,-3.1964,-3.1966,-3.1968,-3.1969,0,-3.167,-3.1663,-3.1697,-3.1729,-3.1757,-3.1781,-3.1803,-3.1825,-3.1808,-3.1837,-3.1878,-3.19,-3.1945,-3.1982,-3.2013,-3.2019,-3.1991,-3.1989,-3.2003,-3.2008,-3.2009,-3.2007,-3.1815,-3.1984,-3.1982,-3.1981,-3.198,-3.198,-3.1779,-3.1817,-3.1833,-3.1871,-3.1886,-3.1907,-3.1942,-3.1943,-3.1977,-3.2012,-3.1999,-3.2046,-3.2062,-3.21,-3.2111,-3.2147,-3.2122,-3.2143,-3.2147,-3.2152,-3.2158,-3.2006,-3.2152,-3.2152,-3.2151,-3.2151,-3.2151,0,-3.1926,-3.1934,-3.197,-3.2001,-3.2031,-3.2004,-3.2027,-3.2053,-3.2095,-3.2113,-3.2142,-3.2189,-3.2225,-3.2227,-3.2261,-3.2289,-3.2277,-3.2298,-3.2294,-3.2296,-3.218,-3.2163,-3.2307,-3.2307,-3.2307,-3.2307,-3.2307,-3.2307,-3.2005,-3.2068,-3.2064,-3.2133,-3.2141,-3.2187,-3.2202,-3.222,-3.2234,-3.2288,-3.2318,-3.232,-3.2331,-3.2365,-3.2397,-3.2397,-3.2409,-3.2435,-3.243,-3.232,-3.2305,-3.229,-3.2274,-3.2439,-3.2439,-3.2543,-3.2544,-3.2545]},{"header":{"parameterUnit":"m.s-1","parameterCategory":1,"la1":30.2991,"la2":30.254,"lo1":-89.0895,"lo2":-89.0444,"dy":0.0017,"dx":0.0017,"nx":28,"ny":28,"refTime":"2024-08-30T09:00:00:Z","depth":0,"parameterNumber":3,"parameterNumberName":"V-component_of_WINDS"},"data":[0,0,0,0,0,0,0,0,0,0,0,0,0,0,0,0,0,0,0,0,0,0,0,0,0,0,0,0,0,0,0,0,0,0,0,0,0,0,0,0,0,0,0,0,0,0,0,0,0,0,0,0,0,0,0,0,0,0,0.5953,0.5954,0,0.6015,0.6016,0.6016,0.6007,0.6006,0.6005,0.6004,0.607,0.6072,0.6075,0,0,0,0,0,0,0,0,0,0,0,0,0,0.5831,0.5833,0.5953,0.5954,0.5955,0.6015,0.6016,0.6017,0.6008,0.6006,0.6005,0.6004,0.6069,0.6072,0.6075,0,0,0,0,0,0,0,0,0,0,0,0,0,0.5887,0.5834,0.5953,0.5958,0.5959,0.6015,0.6016,0.6017,0.6008,0.6006,0.6005,0.6003,0.6068,0.6072,0.6076,0.6132,0,0,0.6088,0.609,0,0,0,0,0,0,0,0,0.5884,0.5892,0.5956,0.5957,0.5959,0.6002,0.5996,0.6055,0.6008,0.5989,0.6004,0.6003,0.6048,0.6054,0.6069,0.6135,0.6138,0.6088,0.6091,0.6092,0.6094,0,0,0,0,0,0,0,0.588,0.5889,0.5978,0.5957,0.5959,0.5957,0.5964,0.6007,0.6027,0.5991,0.599,0.5998,0.6049,0.6065,0.607,0.6139,0.6088,0.6092,0.6094,0.6096,0.6255,0.6256,0,0,0,0,0,0,0.5875,0.5886,0.5976,0.598,0.5917,0.5961,0.5968,0.599,0.6026,0.603,0.5999,0.5997,0.6059,0.6066,0.6073,0.6142,0.6092,0.6096,0.6099,0.6253,0.6255,0.6257,0,0,0,0,0,0,0.5872,0.5883,0.5973,0.5933,0.5944,0.5965,0.5989,0.5992,0.6008,0.6032,0.6036,0.6012,0.6058,0.6067,0.6117,0.6144,0.6098,0.6102,0.6251,0.6254,0.6256,0.6279,0,0,0,0,0,0,0.5869,0.5882,0.5903,0.5933,0.5946,0.6016,0.5991,0.5994,0.6015,0.6013,0.6046,0.6049,0.6057,0.6111,0.6121,0.6148,0.6105,0.6249,0.6252,0.6255,0.6276,0.6283,0.6288,0,0,0,0,0,0.5864,0.5907,0.5904,0.5915,0.5973,0.6018,0.6025,0.6033,0.6017,0.6039,0.6054,0.6048,0.6139,0.6116,0.6128,0.6156,0.6247,0.6251,0.6255,0.6274,0.6281,0.6288,0,0,0,0,0,0,0.588,0.5911,0.5908,0.5962,0.5987,0.6016,0.6044,0.604,0.6071,0.6068,0.6077,0.6085,0.6136,0.6151,0.6125,0.6213,0.6191,0.6197,0.6201,0.6209,0.6214,0.621,0.6108,0,0,0,0,0,0.589,0.5923,0.5949,0.5994,0.6007,0.6023,0.6043,0.6046,0.6073,0.6084,0.6104,0.613,0.6165,0.6188,0.6221,0.6278,0.6286,0.6304,0.631,0.6314,0.632,0.6352,0.6361,0.627,0.627,0.627,0,0,0.5911,0.5932,0.5952,0.5998,0.6017,0.6052,0.6032,0.607,0.6096,0.609,0.6139,0.6154,0.6185,0.6239,0.6264,0.6253,0.6347,0.6319,0.6323,0.6326,0.6358,0.6366,0.6374,0.6273,0.6272,0.6272,0,0,0.5966,0.5985,0.6025,0.6045,0.6075,0.6086,0.6096,0.6125,0.6135,0.6184,0.618,0.6212,0.6271,0.6294,0.6313,0.6377,0.6373,0.6388,0.6418,0.6449,0.6457,0.6463,0.6487,0.6495,0.6393,0.6393,0.6393,0,0.5988,0.6039,0.6046,0.6084,0.6105,0.61,0.6141,0.6161,0.6201,0.6216,0.6203,0.6278,0.6298,0.6358,0.6374,0.6389,0.6401,0.6384,0.6455,0.6461,0.6468,0.649,0.6499,0.6395,0.6395,0.6394,0.6394,0,0.6065,0.6101,0.613,0.6168,0.6192,0.6231,0.6245,0.6268,0.627,0.6282,0.6333,0.6357,0.6395,0.641,0.6412,0.647,0.6463,0.6453,0.643,0.6478,0.6499,0.6508,0.6397,0.6397,0.6396,0.6396,0,0,0.6133,0.6174,0.6184,0.6202,0.6235,0.6263,0.6303,0.634,0.636,0.6388,0.6422,0.6473,0.6464,0.6485,0.649,0.6518,0.6568,0.6504,0.6505,0.6516,0.6635,0.6643,0.6653,0.6566,0.6568,0.6569,0.6633,0,0.6192,0.6261,0.6268,0.633,0.6364,0.6361,0.6396,0.6421,0.6433,0.6465,0.6479,0.6515,0.6499,0.6513,0.654,0.6556,0.6593,0.6552,0.6599,0.66,0.6592,0.6664,0.6673,0.6732,0.6641,0.6643,0.6644,0,0.627,0.6299,0.6365,0.6394,0.6408,0.6439,0.6474,0.6504,0.6532,0.654,0.6564,0.6565,0.6608,0.6583,0.6642,0.6614,0.6634,0.6645,0.6648,0.6653,0.6625,0.6672,0.6751,0.676,0.6657,0.6656,0.6655,0,0.6313,0.6369,0.6416,0.6431,0.6466,0.6488,0.6504,0.653,0.6552,0.6583,0.6598,0.6633,0.6653,0.668,0.6692,0.6673,0.675,0.6727,0.6759,0.6758,0.6775,0.6774,0.6859,0.6787,0.6787,0.6787,0.6787,0,0.6379,0.6419,0.6436,0.6465,0.651,0.6519,0.6564,0.6579,0.6603,0.6635,0.6634,0.6665,0.6678,0.6711,0.672,0.6768,0.6777,0.6785,0.6787,0.6785,0.6784,0.6798,0.6795,0.6789,0.6789,0.6788,0.6788,0,0.6435,0.6448,0.6499,0.6527,0.6536,0.6568,0.6593,0.6622,0.6634,0.6675,0.6685,0.6705,0.6744,0.6757,0.6805,0.6811,0.6867,0.6865,0.6857,0.6858,0.6889,0.6886,0.6987,0.7001,0.6918,0.6919,0.692,0,0.6477,0.6508,0.654,0.6561,0.6577,0.6611,0.6634,0.6643,0.6666,0.6701,0.6726,0.6764,0.6795,0.6858,0.6877,0.6914,0.6913,0.6946,0.6919,0.6917,0.6915,0.6913,0.6917,0.6951,0.6952,0.6953,0.6953,0,0.6549,0.6554,0.6585,0.6619,0.6646,0.6673,0.67,0.6718,0.6731,0.6758,0.6797,0.6821,0.6869,0.6908,0.6945,0.6963,0.6961,0.6962,0.6971,0.697,0.6964,0.6969,0.6872,0.696,0.6959,0.6958,0.6958,0.6958,0.66,0.6628,0.6654,0.669,0.6711,0.6736,0.6764,0.6779,0.6812,0.6851,0.6855,0.6898,0.6926,0.6976,0.6995,0.7029,0.7021,0.7034,0.7038,0.7041,0.7044,0.6958,0.7036,0.7036,0.7036,0.7036,0.7036,0,0.6673,0.669,0.6722,0.6759,0.6787,0.6782,0.6811,0.6836,0.6873,0.6899,0.693,0.6975,0.7013,0.7035,0.7073,0.7096,0.7096,0.7106,0.7104,0.7109,0.7049,0.7037,0.7105,0.7105,0.7105,0.7105,0.7105,0.7105,0.6715,0.6761,0.6769,0.6826,0.6843,0.6884,0.6902,0.6925,0.6946,0.6997,0.7027,0.7041,0.7066,0.7106,0.714,0.7146,0.716,0.7171,0.7176,0.712,0.7113,0.7106,0.7095,0.7174,0.7174,0.7233,0.7233,0.7234]}]]